This demonstration page uses our WeatherBlox Daily Observations layout. Learn more.

Left ArrowRight Arrow

39.01783, -85.05884

Hourly Observations for August 21, 2021

Temp ( °F °C ) Dew Point ( °F °C ) Humidity (%) Winds ( mph kmh ) Pressure ( in mb ) Visibility ( mi km ) Precip ( " mm )
12:52 am 00:52 Partly Cloudy 76 24.4 65 18.3 69 69 S 3 6 29.91 1013 10 16 0.00 0.00
1:52 am 01:52 Mostly Cloudy 75 23.9 65 18.3 71 71 SSE 3 6 29.91 1013 10 16 0.00 0.00
2:52 am 02:52 Partly Cloudy 75 23.9 64 17.8 69 69 E 3 6 29.90 1013 10 16 0.00 0.00
3:52 am 03:52 Mostly Clear 73 22.8 64 17.8 74 74 Calm 29.90 1013 10 16 0.00 0.00
4:52 am 04:52 Mostly Clear 73 22.8 65 18.3 76 76 E 3 6 29.88 1012 10 16 0.00 0.00
5:52 am 05:52 Clear 72 22.2 64 17.8 76 76 Calm 29.89 1012 10 16 0.00 0.00
6:52 am 06:52 Hazy 70 21.1 63 17.2 79 79 ESE 3 6 29.90 1012 6 10 0.00 0.00
7:52 am 07:52 Partly Cloudy 72 22.2 64 17.8 76 76 SE 6 9 29.91 1013 10 16 0.00 0.00
8:52 am 08:52 Partly Cloudy 75 23.9 65 18.3 71 71 S 3 6 29.91 1013 10 16 0.00 0.00
9:52 am 09:52 Mostly Sunny 79 26.1 63 17.2 58 58 SE 5 7 29.90 1012 10 16 0.00 0.00
10:52 am 10:52 Partly Cloudy 82 27.8 63 17.2 53 53 ESE 8 13 29.91 1013 10 16 0.00 0.00
11:52 am 11:52 Partly Cloudy 83 28.3 63 17.2 51 51 VRB 7 11 29.91 1013 10 16 0.00 0.00
12:52 pm 12:52 Partly Cloudy 84 28.9 62 16.7 48 48 VRB 3 6 29.89 1012 10 16 0.00 0.00
1:52 pm 13:52 Partly Cloudy 86 30 63 17.2 46 46 VRB 3 6 29.87 1012 10 16 0.00 0.00
2:52 pm 14:52 Partly Cloudy 87 30.6 62 16.7 43 43 SSW 5 7 29.86 1011 10 16 0.00 0.00
3:52 pm 15:52 Partly Cloudy 87 30.6 64 17.8 46 46 VRB 5 7 29.85 1011 10 16 0.00 0.00
4:52 pm 16:52 Mostly Cloudy 87 30.6 61 16.1 42 42 S 5 7 29.84 1011 10 16 0.00 0.00
5:52 pm 17:52 Mostly Cloudy 85 29.4 61 16.1 45 45 SSW 5 7 29.84 1011 10 16 0.00 0.00
6:52 pm 18:52 Mostly Cloudy 84 28.9 64 17.8 51 51 SW 7 11 29.84 1011 10 16 0.00 0.00
7:52 pm 19:52 Mostly Cloudy 81 27.2 64 17.8 57 57 S 5 7 29.84 1011 10 16 0.00 0.00
8:52 pm 20:52 Mostly Cloudy 80 26.7 64 17.8 58 58 S 5 7 29.85 1011 10 16 0.00 0.00
9:52 pm 21:52 Cloudy 80 26.7 64 17.8 58 58 SE 3 6 29.87 1012 10 16 0.00 0.00
10:52 pm 22:52 Cloudy 78 25.6 65 18.3 64 64 S 3 6 29.88 1012 10 16 0.00 0.00
11:52 pm 23:52 Partly Cloudy 77 25 65 18.3 66 66 Calm 29.88 1012 10 16 0.00 0.00

Powered by AerisWeather